Weather in Hải Dương

Vietnam     20°56′33″N   106°19′35″E
temp.,
°C
wind,
m/s
gust,
m/s
humid.,
%
clouds,
%
prec.,
mm/h
press.,
hPa
HPBL,
m
11 may, tue
tue1101:00+27sse6139118 0.0 1004574
04:00+26se410946 0.0 1003429
07:00+28sse698768 0.0 1005573
10:00+33s45624 0.0 10051075
13:00+36sse665047 0.0 10031961
16:00+33sse78620 0.0 1001903
19:00+28se6108318 0.0 1002419
22:00+27sse511900 0.0 1004512
12 may, wed
wed1201:00+27sse5118935 0.0 1003629
04:00+26se499334 0.0 1004469
07:00+28sse588772 0.0 1005653
10:00+32sse456638 0.2 10051140
13:00+36sse665420 0.3 10021668
16:00+34sse77625 0.0 10021077
19:00+28sse5884100 0.5 1003342
22:00+26sse1485100 1.3 1005160
13 may, thu
thu1301:00+27se4109413 1.3 1003544
04:00+26se499695 0.0 1003453
07:00+28sse598766 0.1 1005711
10:00+31sse676979 0.1 10051090
13:00+34sse775730 0.1 10031571
16:00+33se78611 0.0 1000950
19:00+26wsw61090100 4.1 1004351
22:00+27se3990100 0.2 1004326
14 may, fri
fri1401:00+27se399440 0.2 1003466
04:00+26se4109526 0.0 1003530
07:00+28sse6108759 0.1 1004741
10:00+32s786787 0.1 10051239
13:00+34sse785925 0.1 10021513
16:00+33sse78645 0.0 10001083
19:00+28se61184100 0.0 1002580
22:00+28se51288100 0.0 1004575
15 may, sat
sat1501:00+28sse498978 0.1 1003741
04:00+27sse5109139 0.1 1003587
07:00+28sse5108794 0.3 1004843
10:00+31s7973100 0.3 10051058
13:00+33sse786680 0.6 10031328
16:00+33se78662 0.0 1001997
19:00+28se598628 0.0 1003526
22:00+27sse41091100 0.0 1005599